パンスターズ彗星

C/2017 G3 ( PanSTARRS )

English version
Home page
Updated on February 13, 2018

---------------------------------------------------------------------

・ プロフィール

発見日 2017年4月7日
発見光度 19.6等
発見者 Pan-STARRS 1 telescope (Haleakala)

・ 写真集

・ 軌道要素

Epoch 2017 Mar. 28.0 TT = JDT 2457840.5
T 2017 Apr. 15.04733 TT                                 MPCW
q   2.5904867            (2000.0)            P               Q
z  +0.0034696      Peri.   73.09495     -0.83355671     -0.42521599
 +/-0.0000051      Node   279.46554     -0.53405442     +0.78355334
e   0.9910121      Incl.  159.05106     +0.14131203     +0.45302927
From 137 observations 2017 Apr. 7-2018 Jan. 20, mean residual 0".4.

・ 光度変化

        m1 = 14.0 + 5 logΔ + 10.0 log r

---------------------------------------------------------------------

軌道要素はM.P.E.C. 2018-B155に掲載されたものです。
光度グラフはComet for Windowsで作成したものです。

---------------------------------------------------------------------

Copyright(C) Seiichi Yoshida (comet@aerith.net). All rights reserved.